| time (UTC) | temp F | wind direction | speed MPH | gust MPH | rain 1hr in | rain 24hr in | rain mn in | humidity % | barometer mb |
| 20260505072642 | 61 | 212 | 12.0 | 14.0 | 0.00 | 0.00 | 0.00 | 76 | 1004.7 |
| 20260505072139 | 61 | 220 | 7.0 | 10.0 | 0.00 | 0.00 | 0.00 | 76 | 1004.4 |
| 20260505071634 | 61 | 225 | 9.0 | 11.0 | 0.00 | 0.00 | 0.00 | 75 | 1004.2 |
| 20260505071132 | 60 | 211 | 6.0 | 8.0 | 0.00 | 0.00 | 0.00 | 76 | 1004.6 |
| 20260505070629 | 60 | 193 | 5.0 | 8.0 | 0.00 | 0.00 | 0.00 | 78 | 1004.6 |
| 20260505070125 | 60 | 214 | 5.0 | 6.0 | 0.00 | 0.00 | 0.00 | 78 | 1004.7 |
| 20260505065622 | 60 | 210 | 5.0 | 8.0 | 0.00 | 0.00 | 0.00 | 78 | 1004.8 |
| 20260505065118 | 60 | 209 | 5.0 | 6.0 | 0.00 | 0.00 | 0.00 | 77 | 1004.8 |
| 20260505064615 | 61 | 210 | 5.0 | 6.0 | 0.00 | 0.00 | 0.00 | 76 | 1004.7 |
| 20260505064114 | 61 | 214 | 6.0 | 8.0 | 0.00 | 0.00 | 0.00 | 76 | 1005.1 |
| 20260505063611 | 61 | 218 | 5.0 | 7.0 | 0.00 | 0.00 | 0.00 | 76 | 1005.3 |
| 20260505063106 | 62 | 219 | 5.0 | 7.0 | 0.00 | 0.00 | 0.00 | 75 | 1005.4 |
| 20260505062603 | 62 | 229 | 5.0 | 6.0 | 0.00 | 0.00 | 0.00 | 74 | 1005.2 |
| 20260505062100 | 61 | 202 | 7.0 | 8.0 | 0.00 | 0.00 | 0.00 | 73 | 1005.3 |
| 20260505061558 | 61 | 231 | 4.0 | 8.0 | 0.00 | 0.00 | 0.00 | 74 | 1005.3 |
| 20260505061056 | 61 | 226 | 4.0 | 6.0 | 0.00 | 0.00 | 0.00 | 74 | 1005.4 |
| 20260505060553 | 62 | 218 | 4.0 | 5.0 | 0.00 | 0.00 | 0.00 | 74 | 1005.4 |
| 20260505060049 | 62 | 236 | 3.0 | 5.0 | 0.00 | 0.00 | 0.00 | 75 | 1005.4 |
| 20260505055544 | 62 | 233 | 3.0 | 3.0 | 0.00 | 0.00 | 0.00 | 75 | 1005.5 |
| 20260505055042 | 62 | 239 | 5.0 | 6.0 | 0.00 | 0.00 | 0.00 | 74 | 1005.8 |
| 20260505054539 | 63 | 239 | 6.0 | 8.0 | 0.00 | 0.00 | 0.00 | 71 | 1005.9 |
| 20260505054037 | 64 | 249 | 4.0 | 9.0 | 0.00 | 0.00 | 0.00 | 70 | 1005.9 |
| 20260505053534 | 64 | 285 | 8.0 | 14.0 | 0.00 | 0.00 | 0.00 | 69 | 1006.3 |
| 20260505053031 | 64 | 243 | 5.0 | 8.0 | 0.00 | 0.00 | 0.00 | 71 | 1006.1 |
| 20260505052528 | 65 | 255 | 2.0 | 6.0 | 0.00 | 0.00 | 0.00 | 70 | 1006.0 |
| 20260505052025 | 65 | 258 | 3.0 | 7.0 | 0.00 | 0.00 | 0.00 | 69 | 1006.0 |
| 20260505051521 | 66 | 3 | 5.0 | 10.0 | 0.00 | 0.00 | 0.00 | 66 | 1005.8 |
| 20260505051020 | 66 | 253 | 8.0 | 15.0 | 0.00 | 0.00 | 0.00 | 67 | 1006.0 |
| 20260505050518 | 66 | 265 | 12.0 | 15.0 | 0.00 | 0.00 | 0.00 | 66 | 1005.5 |
| 20260505041445 | 67 | 205 | 11.0 | 14.0 | 0.00 | 0.00 | 0.00 | 63 | 1004.8 |
| 20260505040943 | 66 | 222 | 9.0 | 11.0 | 0.00 | 0.00 | 0.00 | 65 | 1004.9 |
| 20260505040440 | 66 | 218 | 9.0 | 14.0 | 0.00 | 0.00 | 0.00 | 64 | 1004.9 |
| 20260505035936 | 66 | 216 | 9.0 | 14.0 | 0.00 | 0.00 | 0.00 | 65 | 1004.9 |
| 20260505035433 | 66 | 211 | 10.0 | 14.0 | 0.00 | 0.00 | 0.00 | 65 | 1005.0 |
| 20260505034930 | 66 | 211 | 11.0 | 11.0 | 0.00 | 0.00 | 0.00 | 65 | 1005.0 |
| 20260505034426 | 66 | 208 | 8.0 | 11.0 | 0.00 | 0.00 | 0.00 | 66 | 1005.0 |
| 20260505033924 | 66 | 219 | 8.0 | 14.0 | 0.00 | 0.00 | 0.00 | 65 | 1004.9 |
| 20260505033420 | 66 | 205 | 8.0 | 15.0 | 0.00 | 0.00 | 0.00 | 64 | 1005.1 |
| 20260505032919 | 66 | 210 | 9.0 | 13.0 | 0.00 | 0.00 | 0.00 | 64 | 1005.0 |
| 20260505032415 | 66 | 215 | 10.0 | 14.0 | 0.00 | 0.00 | 0.00 | 63 | 1005.1 |
| 20260505031912 | 67 | 222 | 9.0 | 11.0 | 0.00 | 0.00 | 0.00 | 64 | 1005.2 |
| 20260505031409 | 67 | 210 | 9.0 | 10.0 | 0.00 | 0.00 | 0.00 | 63 | 1005.2 |
| 20260505030906 | 67 | 202 | 9.0 | 11.0 | 0.00 | 0.00 | 0.00 | 63 | 1005.3 |
| 20260505030402 | 67 | 213 | 11.0 | 13.0 | 0.00 | 0.00 | 0.00 | 62 | 1005.3 |
| 20260505025857 | 68 | 212 | 7.0 | 13.0 | 0.00 | 0.00 | 0.00 | 62 | 1005.5 |
| 20260505025355 | 68 | 208 | 10.0 | 11.0 | 0.00 | 0.00 | 0.00 | 61 | 1005.3 |
| 20260505024854 | 67 | 214 | 9.0 | 10.0 | 0.00 | 0.00 | 0.00 | 61 | 1005.4 |
| 20260505024351 | 67 | 211 | 8.0 | 13.0 | 0.00 | 0.00 | 0.00 | 61 | 1005.5 |
| 20260505023848 | 67 | 207 | 7.0 | 11.0 | 0.00 | 0.00 | 0.00 | 62 | 1005.4 |
| 20260505023345 | 67 | 207 | 7.0 | 9.0 | 0.00 | 0.00 | 0.00 | 62 | 1005.4 |
| 20260505022842 | 67 | 207 | 7.0 | 13.0 | 0.00 | 0.00 | 0.00 | 61 | 1005.5 |
| 20260505022339 | 67 | 214 | 9.0 | 10.0 | 0.00 | 0.00 | 0.00 | 61 | 1005.4 |
| 20260505021836 | 67 | 204 | 7.0 | 8.0 | 0.00 | 0.00 | 0.00 | 61 | 1005.4 |
| 20260505021332 | 68 | 210 | 7.0 | 10.0 | 0.00 | 0.00 | 0.00 | 60 | 1005.3 |
| 20260505020828 | 67 | 214 | 7.0 | 8.0 | 0.00 | 0.00 | 0.00 | 61 | 1005.4 |
| 20260505020324 | 67 | 212 | 8.0 | 10.0 | 0.00 | 0.00 | 0.00 | 61 | 1005.4 |
| 20260505015821 | 67 | 206 | 6.0 | 11.0 | 0.00 | 0.00 | 0.00 | 61 | 1005.3 |
| 20260505015318 | 68 | 214 | 8.0 | 9.0 | 0.00 | 0.00 | 0.00 | 60 | 1005.3 |
| 20260505014815 | 68 | 216 | 11.0 | 13.0 | 0.00 | 0.00 | 0.00 | 60 | 1005.1 |
| 20260505014312 | 68 | 229 | 7.0 | 10.0 | 0.00 | 0.00 | 0.00 | 60 | 1005.2 |
| 20260505013809 | 68 | 223 | 10.0 | 13.0 | 0.00 | 0.00 | 0.00 | 59 | 1005.2 |
| 20260505013306 | 68 | 237 | 10.0 | 14.0 | 0.00 | 0.00 | 0.00 | 58 | 1005.1 |
| 20260505012805 | 69 | 223 | 10.0 | 11.0 | 0.00 | 0.00 | 0.00 | 58 | 1005.3 |
| 20260505012304 | 68 | 212 | 14.0 | 17.0 | 0.00 | 0.00 | 0.00 | 58 | 1005.2 |
| 20260505011757 | 69 | 217 | 11.0 | 16.0 | 0.00 | 0.00 | 0.00 | 57 | 1005.1 |
| 20260505011255 | 69 | 220 | 9.0 | 13.0 | 0.00 | 0.00 | 0.00 | 57 | 1005.0 |
| 20260505010750 | 69 | 249 | 8.0 | 14.0 | 0.00 | 0.00 | 0.00 | 57 | 1005.1 |
| 20260505010247 | 69 | 204 | 10.0 | 11.0 | 0.00 | 0.00 | 0.00 | 57 | 1004.9 |
| 20260505005743 | 69 | 219 | 8.0 | 11.0 | 0.00 | 0.00 | 0.00 | 56 | 1004.9 |
| 20260505005240 | 69 | 234 | 9.0 | 10.0 | 0.00 | 0.00 | 0.00 | 56 | 1004.9 |
| 20260505004737 | 70 | 243 | 9.0 | 14.0 | 0.00 | 0.00 | 0.00 | 54 | 1004.8 |
| 20260505004233 | 70 | 240 | 13.0 | 18.0 | 0.00 | 0.00 | 0.00 | 53 | 1004.8 |
| 20260505003731 | 71 | 187 | 12.0 | 16.0 | 0.00 | 0.00 | 0.00 | 52 | 1004.7 |
| 20260505003229 | 71 | 206 | 13.0 | 21.0 | 0.00 | 0.00 | 0.00 | 51 | 1004.7 |
| 20260505002725 | 71 | 220 | 14.0 | 18.0 | 0.00 | 0.00 | 0.00 | 51 | 1004.6 |
| 20260505002222 | 71 | 225 | 11.0 | 18.0 | 0.00 | 0.00 | 0.00 | 51 | 1004.7 |
| 20260505001720 | 71 | 237 | 15.0 | 18.0 | 0.00 | 0.00 | 0.00 | 50 | 1004.2 |
| 20260505001217 | 71 | 244 | 11.0 | 17.0 | 0.00 | 0.00 | 0.00 | 50 | 1004.4 |
| 20260505000714 | 72 | 235 | 11.0 | 17.0 | 0.00 | 0.00 | 0.00 | 50 | 1004.1 |
| 20260505000212 | 72 | 237 | 16.0 | 20.0 | 0.00 | 0.00 | 0.00 | 50 | 1004.1 |
| 20260504235708 | 72 | 243 | 13.0 | 22.0 | 0.00 | 0.00 | 0.00 | 50 | 1004.1 |
| 20260504235204 | 73 | 230 | 14.0 | 18.0 | 0.00 | 0.00 | 0.00 | 51 | 1004.3 |
| 20260504234702 | 73 | 207 | 18.0 | 20.0 | 0.00 | 0.00 | 0.00 | 49 | 1004.7 |
| 20260504234159 | 73 | 235 | 12.0 | 20.0 | 0.00 | 0.00 | 0.00 | 50 | 1004.2 |
| 20260504233654 | 73 | 209 | 11.0 | 17.0 | 0.00 | 0.00 | 0.00 | 51 | 1004.1 |
| 20260504233150 | 73 | 249 | 19.0 | 26.0 | 0.00 | 0.00 | 0.00 | 49 | 1004.1 |
| 20260504232648 | 73 | 240 | 24.0 | 27.0 | 0.00 | 0.00 | 0.00 | 48 | 1004.0 |
| 20260504232145 | 73 | 239 | 12.0 | 20.0 | 0.00 | 0.00 | 0.00 | 51 | 1004.0 |
| 20260504231642 | 74 | 245 | 16.0 | 20.0 | 0.00 | 0.00 | 0.00 | 49 | 1004.1 |
| 20260504231138 | 74 | 226 | 11.0 | 18.0 | 0.00 | 0.00 | 0.00 | 50 | 1004.1 |
| 20260504230634 | 74 | 247 | 15.0 | 22.0 | 0.00 | 0.00 | 0.00 | 49 | 1003.8 |
| 20260504230133 | 73 | 248 | 16.0 | 23.0 | 0.00 | 0.00 | 0.00 | 49 | 1003.9 |
| 20260504225631 | 73 | 208 | 13.0 | 21.0 | 0.00 | 0.00 | 0.00 | 50 | 1003.8 |
| 20260504225127 | 73 | 232 | 16.0 | 23.0 | 0.00 | 0.00 | 0.00 | 49 | 1004.1 |
| 20260504224624 | 74 | 236 | 15.0 | 24.0 | 0.00 | 0.00 | 0.00 | 50 | 1003.6 |
| 20260504224121 | 75 | 216 | 15.0 | 22.0 | 0.00 | 0.00 | 0.00 | 50 | 1003.6 |
| 20260504223618 | 74 | 237 | 18.0 | 22.0 | 0.00 | 0.00 | 0.00 | 49 | 1004.0 |
| 20260504223114 | 74 | 221 | 15.0 | 26.0 | 0.00 | 0.00 | 0.00 | 50 | 1003.8 |
| 20260504222611 | 75 | 256 | 22.0 | 26.0 | 0.00 | 0.00 | 0.00 | 46 | 1003.6 |
| 20260504222108 | 75 | 244 | 16.0 | 23.0 | 0.00 | 0.00 | 0.00 | 48 | 1003.9 |
| 20260504221605 | 75 | 243 | 13.0 | 23.0 | 0.00 | 0.00 | 0.00 | 50 | 1003.9 |
| 20260504221102 | 75 | 220 | 13.0 | 23.0 | 0.00 | 0.00 | 0.00 | 50 | 1003.9 |
| 20260504220558 | 75 | 212 | 15.0 | 17.0 | 0.00 | 0.00 | 0.00 | 51 | 1003.8 |
| 20260504220055 | 75 | 236 | 15.0 | 25.0 | 0.00 | 0.00 | 0.00 | 51 | 1003.9 |
| 20260504215552 | 74 | 221 | 14.0 | 17.0 | 0.00 | 0.00 | 0.00 | 51 | 1004.1 |
| 20260504215049 | 75 | 244 | 11.0 | 20.0 | 0.00 | 0.00 | 0.00 | 52 | 1004.0 |
| 20260504214545 | 74 | 209 | 20.0 | 25.0 | 0.00 | 0.00 | 0.00 | 52 | 1004.1 |
| 20260504214042 | 74 | 223 | 14.0 | 18.0 | 0.00 | 0.00 | 0.00 | 53 | 1004.1 |
| 20260504213538 | 74 | 251 | 13.0 | 27.0 | 0.00 | 0.00 | 0.00 | 54 | 1004.0 |
| 20260504213035 | 75 | 240 | 16.0 | 25.0 | 0.00 | 0.00 | 0.00 | 52 | 1004.1 |
| 20260504212531 | 74 | 224 | 12.0 | 18.0 | 0.00 | 0.00 | 0.00 | 53 | 1004.3 |
| 20260504212029 | 75 | 213 | 17.0 | 20.0 | 0.00 | 0.00 | 0.00 | 51 | 1004.3 |
| 20260504211525 | 74 | 251 | 18.0 | 22.0 | 0.00 | 0.00 | 0.00 | 52 | 1004.2 |
| 20260504211022 | 74 | 217 | 17.0 | 24.0 | 0.00 | 0.00 | 0.00 | 53 | 1004.3 |
| 20260504210519 | 75 | 216 | 19.0 | 24.0 | 0.00 | 0.00 | 0.00 | 51 | 1004.3 |
| 20260504210016 | 74 | 216 | 21.0 | 24.0 | 0.00 | 0.00 | 0.00 | 55 | 1004.6 |
| 20260504205514 | 74 | 205 | 19.0 | 21.0 | 0.00 | 0.00 | 0.00 | 54 | 1004.4 |
| 20260504205012 | 74 | 219 | 13.0 | 23.0 | 0.00 | 0.00 | 0.00 | 53 | 1004.7 |
| 20260504204509 | 73 | 215 | 18.0 | 24.0 | 0.00 | 0.00 | 0.00 | 53 | 1004.7 |
| 20260504204008 | 73 | 212 | 14.0 | 22.0 | 0.00 | 0.00 | 0.00 | 55 | 1004.7 |
| 20260504203506 | 74 | 211 | 13.0 | 17.0 | 0.00 | 0.00 | 0.00 | 55 | 1004.8 |
| 20260504203003 | 73 | 209 | 14.0 | 17.0 | 0.00 | 0.00 | 0.00 | 56 | 1004.9 |
| 20260504202458 | 75 | 233 | 15.0 | 21.0 | 0.00 | 0.00 | 0.00 | 55 | 1004.8 |
| 20260504201955 | 73 | 251 | 13.0 | 16.0 | 0.00 | 0.00 | 0.00 | 54 | 1005.0 |
| 20260504201453 | 73 | 224 | 14.0 | 20.0 | 0.00 | 0.00 | 0.00 | 56 | 1005.4 |
| 20260504200950 | 74 | 219 | 13.0 | 20.0 | 0.00 | 0.00 | 0.00 | 53 | 1005.3 |
| 20260504200447 | 74 | 197 | 16.0 | 21.0 | 0.00 | 0.00 | 0.00 | 54 | 1005.2 |
| 20260504195943 | 75 | 214 | 18.0 | 20.0 | 0.00 | 0.00 | 0.00 | 53 | 1005.2 |
| 20260504195439 | 74 | 226 | 14.0 | 21.0 | 0.00 | 0.00 | 0.00 | 55 | 1005.4 |
| 20260504194936 | 74 | 212 | 14.0 | 21.0 | 0.00 | 0.00 | 0.00 | 56 | 1005.3 |
| 20260504194432 | 73 | 229 | 17.0 | 21.0 | 0.00 | 0.00 | 0.00 | 55 | 1005.6 |
| 20260504193928 | 73 | 218 | 15.0 | 20.0 | 0.00 | 0.00 | 0.00 | 56 | 1005.6 |
| 20260504193425 | 74 | 197 | 11.0 | 16.0 | 0.00 | 0.00 | 0.00 | 55 | 1005.7 |
| 20260504192924 | 74 | 255 | 14.0 | 16.0 | 0.00 | 0.00 | 0.00 | 52 | 1005.6 |
| 20260504192421 | 74 | 239 | 15.0 | 18.0 | 0.00 | 0.00 | 0.00 | 53 | 1005.9 |
| 20260504191920 | 74 | 204 | 14.0 | 22.0 | 0.00 | 0.00 | 0.00 | 54 | 1005.9 |
| 20260504191418 | 73 | 209 | 11.0 | 16.0 | 0.00 | 0.00 | 0.00 | 53 | 1006.0 |
| 20260504190912 | 73 | 207 | 12.0 | 14.0 | 0.00 | 0.00 | 0.00 | 54 | 1006.1 |
| 20260504190408 | 72 | 231 | 12.0 | 18.0 | 0.00 | 0.00 | 0.00 | 52 | 1006.2 |
| 20260504185905 | 73 | 215 | 13.0 | 17.0 | 0.00 | 0.00 | 0.00 | 51 | 1006.3 |
| 20260504185403 | 73 | 225 | 15.0 | 21.0 | 0.00 | 0.00 | 0.00 | 47 | 1006.3 |
| 20260504184858 | 72 | 230 | 12.0 | 14.0 | 0.00 | 0.00 | 0.00 | 50 | 1006.3 |
| 20260504184354 | 73 | 205 | 9.0 | 15.0 | 0.00 | 0.00 | 0.00 | 51 | 1006.3 |
| 20260504183850 | 72 | 207 | 11.0 | 15.0 | 0.00 | 0.00 | 0.00 | 52 | 1006.3 |
| 20260504183348 | 73 | 220 | 11.0 | 14.0 | 0.00 | 0.00 | 0.00 | 47 | 1006.6 |
| 20260504182845 | 72 | 199 | 10.0 | 16.0 | 0.00 | 0.00 | 0.00 | 50 | 1006.4 |
| 20260504182343 | 72 | 205 | 17.0 | 23.0 | 0.00 | 0.00 | 0.00 | 46 | 1006.5 |
| 20260504181839 | 72 | 229 | 14.0 | 18.0 | 0.00 | 0.00 | 0.00 | 50 | 1006.6 |
| 20260504181337 | 72 | 229 | 11.0 | 16.0 | 0.00 | 0.00 | 0.00 | 50 | 1006.8 |
| 20260504180836 | 71 | 223 | 9.0 | 11.0 | 0.00 | 0.00 | 0.00 | 54 | 1006.9 |
| 20260504180334 | 71 | 217 | 8.0 | 11.0 | 0.00 | 0.00 | 0.00 | 56 | 1007.0 |
| 20260504175832 | 71 | 200 | 7.0 | 10.0 | 0.00 | 0.00 | 0.00 | 54 | 1006.9 |
| 20260504175328 | 71 | 212 | 10.0 | 15.0 | 0.00 | 0.00 | 0.00 | 54 | 1007.0 |
| 20260504174826 | 71 | 211 | 9.0 | 17.0 | 0.00 | 0.00 | 0.00 | 56 | 1007.0 |
| 20260504174324 | 71 | 184 | 9.0 | 11.0 | 0.00 | 0.00 | 0.00 | 55 | 1007.1 |
| 20260504173820 | 71 | 212 | 12.0 | 15.0 | 0.00 | 0.00 | 0.00 | 55 | 1007.2 |
| 20260504173317 | 71 | 226 | 14.0 | 17.0 | 0.00 | 0.00 | 0.00 | 52 | 1007.2 |
| 20260504172814 | 70 | 224 | 11.0 | 13.0 | 0.00 | 0.00 | 0.00 | 51 | 1007.1 |
| 20260504172311 | 70 | 217 | 9.0 | 11.0 | 0.00 | 0.00 | 0.00 | 55 | 1007.4 |
| 20260504171807 | 70 | 205 | 10.0 | 17.0 | 0.00 | 0.00 | 0.00 | 54 | 1007.3 |
| 20260504171304 | 70 | 225 | 8.0 | 17.0 | 0.00 | 0.00 | 0.00 | 54 | 1007.6 |
| 20260504170801 | 70 | 220 | 12.0 | 17.0 | 0.00 | 0.00 | 0.00 | 55 | 1007.7 |
| 20260504170258 | 70 | 213 | 9.0 | 14.0 | 0.00 | 0.00 | 0.00 | 58 | 1007.7 |
| 20260504160216 | 67 | 220 | 9.0 | 14.0 | 0.00 | 0.00 | 0.00 | 63 | 1008.4 |
| 20260504151144 | 64 | 217 | 7.0 | 13.0 | 0.00 | 0.00 | 0.00 | 64 | 1008.9 |
| 20260504150641 | 64 | 237 | 13.0 | 14.0 | 0.00 | 0.00 | 0.00 | 64 | 1008.6 |
| 20260504150138 | 64 | 205 | 7.0 | 10.0 | 0.00 | 0.00 | 0.00 | 65 | 1008.8 |
| 20260504141107 | 61 | 229 | 11.0 | 13.0 | 0.00 | 0.00 | 0.00 | 66 | 1009.1 |
| 20260504140604 | 60 | 219 | 12.0 | 17.0 | 0.00 | 0.00 | 0.00 | 67 | 1009.0 |
| 20260504130528 | 57 | 216 | 12.0 | 14.0 | 0.00 | 0.00 | 0.00 | 69 | 1009.6 |
| 20260504110415 | 50 | 202 | 7.0 | 9.0 | 0.00 | 0.00 | 0.00 | 76 | 1009.4 |
| 20260504100332 | 49 | 225 | 7.0 | 8.0 | 0.00 | 0.00 | 0.00 | 76 | 1009.2 |
| 20260504081726 | 50 | 208 | 8.0 | 10.0 | 0.00 | 0.00 | 0.00 | 72 | 1009.8 |
| 20260504081222 | 50 | 205 | 11.0 | 13.0 | 0.00 | 0.00 | 0.00 | 72 | 1010.2 |
| 20260504080718 | 50 | 209 | 9.0 | 11.0 | 0.00 | 0.00 | 0.00 | 71 | 1010.1 |
| 20260504080215 | 51 | 214 | 9.0 | 14.0 | 0.00 | 0.00 | 0.00 | 71 | 1010.2 |